RH
55 60 63 61 60 57 54 56 57 54 59 61 63 62 64 66 66 68 68 67 68 66 64 64 67 66 48 42 41 41 42 41 44 37 35 38 51 52 49 47 47 42 43
64 68 63 59 53 49 53 55 55 58 56 60 62 64 64 61 63 65 63 60 64 62 61 65 60 49 63 57 47 57 50 53 48 62 50 43 50 51 50 56 42 35 36
65 61 59 55 46 51 53 54 55 58 59 54 60 64 63 61 62 62 64 63 60 59 61 69 73 76 76 64 61 53 44 46 50 49 48 42 42 39 47 49 48 46 38
58 59 59 50 49 48 55 58 57 60 60 58 57 60 59 58 57 57 60 61 61 57 63 66 68 74 75 74 64 65 63 59 59 53 41 38 38 42 43 42 42 37 38
62 56 56 59 59 59 61 59 59 60 57 59 60 58 56 51 41 56 54 53 56 57 61 64 64 71 78 84 64 68 71 60 50 46 50 42 42 50 59 48 43 38 44
62 53 63 66 65 62 63 60 63 62 62 62 60 59 59 41 80 72 68 51 53 52 53 55 62 67 70 80 82 81 83 74 71 62 67 61 77 63 57 62 57 56 50
65 63 66 67 65 65 62 62 63 64 60 62 60 59 60 57 77 74 70 48 51 52 50 51 46 38 64 64 74 81 83 85 87 79 78 79 79 78 78 83 71 70 64
65 67 66 66 65 66 64 62 64 60 62 61 57 60 64 66 82 75 72 58 52 52 48 50 55 56 74 74 66 66 60 71 66 61 70 68 62 68 69 67 69 74 61
65 67 66 63 64 66 64 62 60 60 60 57 54 61 64 63 88 79 74 54 48 50 42 51 56 56 92 88 69 65 64 64 81 81 80 77 80 76 76 54 48 46 43
64 65 67 67 67 68 63 65 63 63 59 47 58 59 74 66 88 73 64 45 44 36 37 50 76 72 85 89 70 61 65 64 59 60 69 69 68 62 80 64 51 48 48
62 65 70 72 76 70 68 66 67 66 64 65 64 60 58 64 68 67 60 54 38 30 25 33 44 83 88 91 93 59 62 64 57 52 47 42 44 43 42 49 60 47 48
69 72 73 75 64 57 69 69 70 68 69 67 67 59 42 58 77 72 63 64 66 41 36 33 54 85 90 93 77 81 77 75 40 40 40 41 40 39 39 45 58 55 48
72 74 74 72 68 65 70 70 56 65 53 51 43 42 37 36 43 76 73 74 74 46 36 66 79 84 88 82 81 74 77 40 36 35 35 36 35 34 43 39 45 48 59
72 74 70 70 69 66 51 46 45 40 41 42 41 40 36 37 37 36 40 49 77 52 62 48 58 69 88 68 62 58 38 35 36 33 33 34 33 30 29 30 27 27 25
67 63 63 55 63 53 58 41 40 46 44 40 39 38 39 37 37 52 49 35 32 55 58 37 35 36 36 35 35 35 36 36 36 34 35 34 34 32 31 31 31 29 28
57 51 43 38 36 36 37 42 82 82 88 91 93 77 44 68 67 67 70 69 78 80 43 36 35 35 36 34 35 34 34 42 36 35 35 36 35 35 33 32 32 33 34
48 45 37 45 33 36 37 37 36 51 88 91 90 93 98 83 92 82 79 82 84 80 38 35 35 36 37 34 34 33 34 33 46 40 36 36 35 35 37 32 30 33 34
49 78 40 37 35 36 37 37 35 36 35 33 76 77 96 98 97 95 86 90 48 60 42 38 36 36 37 38 36 34 33 34 35 38 37 36 36 36 35 32 31 35 35
46 38 39 37 38 44 40 38 36 35 36 36 35 66 73 89 93 95 92 53 40 36 34 35 37 36 37 38 39 40 44 39 38 36 35 35 34 34 35 32 31 54 49
44 72 68 43 55 55 41 41 43 41 40 50 37 35 32 55 43 42 51 48 43 37 34 36 37 38 40 43 42 41 41 41 42 40 41 38 36 35 34 32 32 34 35
47 59 75 82 52 48 48 57 48 42 44 42 38 39 60 38 35 35 34 34 39 39 40 39 40 41 42 44 45 42 40 39 38 38 38 35 36 35 35 34 34 34 34
52 56 63 64 64 63 63 66 63 59 55 50 45 45 80 46 40 37 36 36 34 37 35 41 41 38 38 40 42 40 37 35 34 36 36 36 33 33 32 32 34 34 34
53 54 56 64 67 74 71 70 78 80 74 69 64 66 68 75 83 77 77 66 50 42 49 57 47 39 40 40 44 50 41 40 36 40 35 36 35 34 32 33 34 34 34
44 44 46 52 59 62 65 68 72 86 79 77 75 81 89 91 77 82 85 80 86 82 83 82 66 54 50 49 54 53 49 39 46 46 48 42 36 38 34 34 34 35 35
33 34 35 36 39 41 42 44 50 63 66 72 76 82 84 80 86 70 86 89 85 83 80 82 81 78 79 80 67 56 74 88 64 77 64 59 45 45 36 34 34 34 37
36 36 36 37 39 42 45 46 46 46 45 42 42 44 43 43 47 45 48 54 56 55 61 76 81 79 81 79 90 97 100 100 91 98 75 63 60 49 42 39 38 42 47
Wind_Speed
9 9 9 9 8 7 6 6 5 5 4 4 3 4 3 2 1 3 4 3 4 4 4 5 5 5 6 6 5 6 7 8 9 7 6 7 7 10 9 9 10 8 7
9 9 9 8 7 7 6 6 4 3 2 2 3 3 3 2 1 3 4 3 4 4 2 4 4 3 4 4 5 4 7 8 8 9 8 8 9 8 8 8 10 10 8
11 10 8 7 6 6 6 5 3 2 1 1 3 3 2 2 3 2 1 1 1 1 3 4 5 4 5 6 6 6 5 4 4 8 7 6 6 7 6 8 6 8 9
10 10 9 7 6 6 6 4 1 1 2 2 3 3 3 2 2 4 3 3 3 1 1 2 3 4 5 6 6 6 5 7 6 7 7 6 5 4 5 8 6 6 5
10 9 8 7 7 6 5 3 3 3 2 4 3 4 3 4 1 2 2 4 5 4 2 2 1 4 3 5 6 7 8 7 6 7 7 7 5 8 6 7 7 7 7
11 10 9 7 7 7 5 4 4 3 3 4 4 5 5 5 8 3 9 3 3 4 5 4 3 7 3 5 4 6 6 7 6 6 6 5 6 7 6 8 7 9 6
11 10 9 8 6 5 4 3 3 4 3 4 5 5 5 3 6 3 6 6 6 5 5 5 6 3 4 7 6 11 10 6 6 6 4 4 5 5 6 7 8 8 6
11 11 9 8 6 5 4 4 4 4 4 4 5 6 4 3 9 5 7 8 4 5 6 5 4 3 4 8 7 6 5 5 1 3 5 5 6 7 7 9 9 8 8
10 9 8 7 6 6 5 4 5 5 5 4 4 5 6 5 9 6 7 7 3 6 4 5 5 5 8 8 8 5 6 4 10 7 4 3 3 3 7 10 6 9 5
10 8 8 7 5 4 4 4 4 4 4 5 3 3 1 7 8 4 7 7 5 5 5 3 7 4 5 7 7 6 5 4 6 4 6 8 7 4 3 6 8 9 7
10 10 8 7 7 6 5 5 5 5 4 5 4 4 5 2 6 5 3 7 5 5 5 3 6 5 4 8 8 6 6 8 4 6 3 3 1 1 3 5 7 7 8
9 8 8 7 6 5 6 5 5 5 6 6 5 7 6 4 4 9 6 4 4 7 6 4 4 5 4 6 9 3 6 9 6 4 3 2 3 3 3 4 4 5 5
9 8 6 7 6 5 5 5 5 6 7 6 6 6 4 4 5 11 9 7 9 7 5 5 4 7 9 10 6 5 9 6 4 5 3 2 3 3 5 3 4 2 4
7 6 6 7 6 5 6 6 6 5 6 5 5 5 4 4 4 3 5 8 11 10 9 7 2 6 7 5 5 9 5 4 5 6 4 3 3 3 2 3 3 3 4
6 6 7 7 7 5 7 6 6 7 5 5 5 5 5 5 1 3 2 3 3 3 4 5 5 5 5 5 4 4 4 4 5 4 4 4 4 4 3 3 3 4 4
6 6 5 4 4 5 5 6 12 12 7 7 9 7 9 3 8 6 6 5 2 2 6 6 5 5 5 6 5 5 5 4 5 5 5 5 5 5 5 4 4 5 5
6 2 2 4 4 4 4 5 6 8 11 12 13 11 12 15 1 5 7 7 5 5 8 8 7 6 6 6 6 6 6 5 3 6 6 6 6 6 5 7 6 5 6
4 4 4 4 4 4 4 5 6 6 7 6 11 11 14 13 9 9 7 6 7 8 9 10 9 8 7 7 7 7 7 6 6 6 7 7 7 7 7 7 7 7 6
5 4 4 4 5 4 6 7 7 7 7 6 6 7 11 7 5 5 10 9 10 10 9 9 9 9 8 8 8 7 8 8 7 7 7 8 8 8 8 8 8 6 5
4 1 3 5 5 6 8 6 7 9 7 7 9 8 5 8 8 9 10 10 10 11 10 10 10 9 9 9 9 9 9 9 9 9 9 9 9 8 9 9 9 9 8
3 3 4 4 7 8 8 9 11 9 9 9 11 9 5 8 10 9 9 9 10 10 10 10 10 10 9 10 10 10 11 10 10 10 9 9 9 9 9 10 9 10 9
6 6 7 7 8 8 8 9 10 11 11 9 11 8 10 7 10 11 11 11 11 10 9 10 10 10 10 10 11 12 13 12 11 11 10 10 10 10 10 11 10 10 10
8 8 7 6 7 8 7 7 8 9 9 9 9 10 9 8 9 9 10 12 11 8 8 7 11 11 9 10 8 9 12 11 11 9 11 11 10 11 11 11 11 11 11
4 6 5 3 3 5 5 6 7 8 8 8 8 7 8 8 9 9 9 10 11 13 11 12 13 15 11 12 8 11 9 13 8 8 9 10 12 12 12 12 12 13 12
7 7 7 7 6 6 5 4 3 4 5 5 5 6 6 7 7 9 7 7 7 9 11 11 10 15 16 21 16 14 11 11 8 8 7 12 16 16 14 13 13 13 13
6 7 6 7 7 7 7 7 8 7 7 7 7 7 8 8 8 9 9 10 10 12 11 7 9 16 17 13 14 20 18 13 8 8 8 10 11 13 12 15 19 11 11
Wind_Direction
149 132 137 133 134 144 135 121 118 118 149 156 169 154 157 135 350 321 317 291 294 296 292 274 278 284 284 293 284 279 278 279 284 290 310 289 315 288 311 317 294 297 245
136 139 141 141 145 130 113 97 85 96 158 171 177 187 178 178 305 306 288 318 276 272 275 260 264 281 279 239 270 280 305 312 300 298 307 300 301 304 289 305 290 306 311
146 143 147 142 136 111 104 88 85 96 54 138 191 209 257 333 325 313 290 244 227 276 353 339 6 347 344 350 310 314 305 283 275 276 298 255 275 293 317 277 287 294 261
149 149 147 146 123 103 95 85 64 93 217 196 221 212 253 305 343 347 353 349 324 344 304 7 11 11 0 345 318 312 306 308 299 280 282 295 293 314 275 277 312 299 325
151 150 145 131 119 113 106 117 155 194 184 262 238 246 241 242 152 350 324 350 342 331 358 338 31 17 14 348 318 350 316 303 308 313 311 319 346 350 348 331 301 312 286
154 152 138 143 138 131 139 156 165 185 209 223 231 238 249 267 92 327 310 316 331 324 320 294 252 243 278 239 263 280 300 304 300 313 318 359 310 330 11 347 320 335 321
155 144 149 152 144 142 148 152 181 206 225 232 255 264 217 227 148 229 281 293 308 339 316 305 291 68 334 314 242 237 231 213 247 298 278 274 316 342 348 313 335 317 304
161 151 160 156 147 150 180 191 195 215 228 254 266 255 258 174 161 214 261 272 284 316 314 300 304 333 31 325 307 308 294 206 235 303 326 3 355 342 326 303 288 285 254
163 161 155 163 157 180 196 208 230 230 226 242 261 250 256 245 162 207 257 279 311 303 308 287 317 298 43 339 301 303 300 293 152 169 167 158 204 283 314 300 345 301 315
163 157 159 167 170 204 226 228 225 238 244 273 235 256 330 273 151 192 273 287 291 315 270 225 152 2 0 334 308 300 300 5 327 303 195 203 219 178 249 342 334 322 330
160 159 163 159 183 208 207 215 217 228 276 248 237 251 263 298 144 188 264 285 310 309 295 276 116 91 345 315 298 315 357 317 260 260 260 256 267 268 18 19 7 346 339
159 157 163 175 211 180 211 203 224 237 238 245 246 251 194 216 212 190 210 276 332 286 282 300 87 15 295 274 280 14 298 279 268 295 289 322 325 334 29 13 11 3 30
164 165 182 189 195 205 223 226 228 219 260 230 237 245 240 197 201 180 192 226 245 262 299 15 297 277 262 250 232 257 267 263 310 292 310 326 338 8 301 247 210 234 230
175 170 188 199 200 218 227 219 242 247 241 246 248 252 256 238 232 220 201 197 221 230 210 213 257 291 288 327 213 212 249 314 332 309 307 306 285 278 278 314 303 311 279
183 193 197 210 200 222 234 262 246 243 281 277 262 269 273 268 287 83 313 272 287 52 316 263 263 259 264 254 246 246 257 260 258 273 265 264 264 265 259 280 281 279 278
192 201 215 240 227 231 253 234 211 245 241 249 262 260 279 256 147 165 210 219 164 121 256 268 283 284 276 282 278 272 262 224 255 267 263 255 261 259 257 250 248 269 285
232 173 219 259 264 252 251 263 278 207 230 226 232 232 224 262 169 229 210 205 181 180 252 271 276 280 288 284 279 277 274 273 326 269 267 262 261 260 216 250 257 263 268
220 78 260 251 257 265 263 272 271 267 271 254 210 221 212 224 229 219 189 189 224 216 255 269 270 266 264 268 268 268 265 264 255 253 257 252 254 256 258 252 252 256 265
230 245 224 253 264 299 289 282 276 277 272 276 272 200 203 186 190 184 175 234 254 265 263 251 247 259 260 256 258 258 258 261 266 269 255 250 253 251 251 251 254 248 265
225 258 285 292 310 292 279 279 304 280 279 296 275 269 264 152 222 221 208 225 242 254 262 261 259 255 252 251 248 246 245 241 240 241 240 253 253 251 255 252 252 261 266
291 235 278 256 268 270 274 281 262 270 276 267 274 263 217 271 278 268 269 232 226 246 256 258 259 254 247 246 244 241 240 244 243 241 248 245 243 248 241 247 256 261 265
303 313 304 305 308 300 299 296 286 281 275 279 283 277 174 232 261 262 262 265 265 267 256 254 264 260 248 246 244 241 244 241 241 240 241 241 242 241 242 248 252 258 264
8 346 353 4 0 353 347 332 351 356 343 338 331 342 342 342 338 340 330 319 302 270 275 283 283 259 258 268 256 252 257 254 244 238 245 239 239 240 243 247 251 256 261
350 323 333 346 3 332 350 355 0 15 10 4 359 357 1 357 346 348 354 345 342 345 347 354 337 305 281 284 281 264 250 257 261 275 261 246 251 235 241 254 258 262 266
351 343 330 334 329 331 313 317 334 359 346 350 349 349 342 334 340 336 344 341 346 337 329 336 334 332 337 335 320 306 332 344 290 294 299 293 274 250 249 250 249 257 272
9 357 355 357 359 353 348 344 337 341 333 337 339 333 332 330 328 330 335 323 331 321 309 312 313 317 322 324 338 347 341 321 306 305 288 268 261 275 256 249 248 250 256